Wind_Speed
30 31 32 32 31 30 29 29 30 31 32 33 33 33 33 34 35 35 36 37 38 39 40 41 42 43 44 45 46 47 47 48 48 47 47 48 48 48 48 47 47 46 46 45 44 45 46 47 49 50 51 50 48 44 43 45 47 49 50 49 45 44 43 44 46 47 46 47 48 49 49 48 45 43 43 46 51 54 56 56 54 55 56 58 60
31 32 33 33 33 32 32 32 32 33 34 35 35 35 36 36 37 37 38 39 40 41 42 43 44 44 45 46 48 49 49 50 51 51 50 50 49 49 49 49 48 47 47 46 46 46 47 48 49 50 50 49 46 43 43 46 48 50 51 51 49 47 47 47 48 48 48 48 48 49 50 51 50 49 48 48 51 53 55 56 56 57 58 59 60
32 33 34 34 34 34 34 34 35 36 36 37 36 37 38 39 39 39 39 40 42 43 44 45 45 46 47 48 49 50 51 52 52 53 53 52 52 51 51 50 50 49 48 47 47 48 49 49 50 51 50 48 46 45 46 49 51 51 51 51 50 49 48 48 47 47 48 48 48 48 49 50 51 51 50 49 49 50 51 54 56 57 58 58 59
33 35 36 36 36 36 36 37 37 38 39 39 39 39 40 41 41 41 41 42 43 44 45 46 47 48 49 50 50 50 51 52 53 54 55 55 54 53 53 52 51 49 49 49 48 49 51 51 51 51 51 50 48 46 49 53 54 53 53 52 52 51 50 49 47 47 48 49 50 50 49 50 51 51 51 49 49 49 49 52 55 56 57 58 58
36 37 38 39 39 39 39 40 40 41 41 41 41 42 42 43 43 43 43 43 44 45 47 47 48 49 51 52 52 52 53 53 54 55 56 56 56 55 55 53 52 51 50 50 50 51 52 52 51 52 51 51 49 47 50 56 57 56 56 55 55 55 54 52 50 50 50 51 52 53 52 51 51 52 52 50 49 49 50 52 55 57 57 58 60
39 40 40 41 42 42 42 42 43 43 43 43 43 44 44 44 44 44 45 45 46 47 48 49 49 51 52 53 53 53 54 55 55 56 57 57 57 57 56 54 53 52 52 52 53 53 54 54 53 52 52 51 50 49 54 59 59 59 59 59 59 59 58 56 55 55 54 53 54 55 55 55 54 52 51 49 47 48 49 51 53 55 56 58 61
42 42 42 43 44 45 45 45 45 46 46 45 46 46 46 46 46 45 46 47 48 50 50 50 51 52 53 54 54 54 54 56 56 56 57 58 59 58 56 54 54 54 54 54 54 54 56 56 53 52 53 54 54 54 58 61 61 62 62 62 62 62 62 61 60 60 60 59 58 59 59 59 57 54 51 48 46 46 47 47 49 52 55 58 62
44 44 44 46 47 47 47 47 48 48 48 48 48 48 49 49 48 46 46 47 49 51 52 53 53 54 55 56 56 55 56 57 57 56 56 56 57 56 54 53 55 55 55 55 55 56 56 54 53 53 55 57 59 60 61 63 63 64 64 64 64 64 64 64 63 64 64 64 63 63 63 62 60 56 52 48 46 45 45 46 49 52 56 60 65
47 47 47 48 49 49 50 50 50 50 50 50 51 51 51 51 50 49 48 49 49 51 53 55 55 56 57 58 58 58 58 59 58 57 56 55 55 55 54 54 56 56 56 56 57 56 55 54 54 53 55 60 63 63 64 65 65 66 67 67 67 66 66 66 66 66 67 66 67 66 66 65 63 59 54 50 48 46 46 47 51 56 59 62 66
50 50 50 50 51 52 52 52 52 52 52 52 53 53 53 52 51 51 51 51 52 52 53 55 57 58 59 59 60 60 61 60 60 59 58 56 55 55 56 57 58 58 57 57 58 58 57 56 53 51 56 64 66 66 67 67 68 68 69 70 70 69 69 69 69 69 69 68 69 69 69 68 66 62 58 53 50 49 50 50 53 58 62 64 67
52 53 53 53 53 54 54 54 54 54 54 55 55 55 54 54 53 53 53 54 54 55 55 57 59 61 61 61 62 63 63 63 62 61 61 59 58 57 58 59 59 59 59 59 59 59 57 55 54 55 62 67 67 67 69 69 69 70 71 72 72 71 71 72 72 72 71 70 70 71 71 69 67 64 61 56 54 53 54 54 55 58 62 65 69
55 56 56 56 56 57 57 56 56 56 56 57 57 57 56 55 55 55 55 57 57 57 58 59 61 63 64 64 65 66 66 66 65 65 64 63 62 60 61 62 61 61 61 61 60 59 56 55 58 63 66 68 68 70 70 71 71 72 73 74 74 74 73 74 74 74 73 72 72 72 72 70 68 65 61 59 59 59 59 60 61 62 65 68 72
58 59 59 60 60 59 59 58 58 58 59 59 59 59 58 57 57 57 58 59 59 60 61 62 62 64 65 67 68 69 69 69 68 68 67 66 65 64 64 64 64 63 64 63 62 61 59 60 64 66 68 69 70 71 72 72 74 74 75 76 76 76 75 75 75 75 75 74 74 73 72 71 68 64 63 63 64 65 65 66 67 69 70 72 73
60 61 62 63 63 62 61 61 61 61 61 61 62 61 60 59 59 59 59 60 61 62 63 64 64 65 67 68 70 71 72 71 70 70 69 68 67 67 67 67 66 66 66 65 64 64 64 66 67 68 70 72 72 73 74 75 76 77 78 79 79 78 77 77 77 76 76 76 76 75 74 72 69 66 66 67 67 66 66 67 69 70 71 72 73
62 63 64 65 66 65 64 63 63 63 63 64 64 64 63 62 61 61 61 63 64 64 64 66 67 68 68 70 71 73 74 74 72 71 71 70 69 68 68 68 68 67 67 67 67 67 68 69 71 72 73 74 75 76 76 77 78 79 80 81 81 80 80 80 79 78 78 79 78 76 74 73 71 69 68 68 67 67 66 66 68 69 69 70 73
64 65 67 68 69 68 67 66 66 66 66 67 67 67 66 64 63 62 63 65 66 66 67 68 69 70 71 72 73 75 75 75 74 73 72 72 70 69 68 68 69 68 68 68 68 70 71 72 73 74 75 76 77 78 78 79 80 81 83 84 83 83 82 82 81 81 81 81 80 77 75 72 71 70 69 68 68 67 67 67 69 69 69 71 74
67 68 69 71 72 71 70 69 69 69 69 70 70 69 69 68 66 64 65 66 67 68 69 70 72 73 74 75 76 78 79 77 76 75 74 72 71 70 69 69 69 69 69 69 70 71 73 74 75 76 77 78 79 80 80 80 82 83 85 85 84 84 84 84 84 84 84 83 81 78 75 72 71 70 70 71 71 71 70 71 72 73 73 74 77
69 71 72 73 74 74 73 72 72 72 72 72 72 71 71 71 68 66 66 67 68 69 71 72 74 76 76 78 79 81 81 79 78 76 74 73 71 71 70 70 70 70 70 72 73 74 75 76 77 78 79 80 81 81 81 82 84 86 86 85 85 85 85 85 85 85 85 83 82 79 76 74 73 73 73 74 75 75 75 75 76 77 78 79 80
71 72 73 74 75 76 75 75 74 74 74 73 73 73 73 71 69 68 69 70 70 71 72 74 76 77 78 79 81 81 80 80 79 77 75 73 72 71 71 71 71 71 73 74 75 76 77 78 79 80 82 82 82 82 83 84 86 87 87 87 86 86 86 87 87 86 85 83 82 80 79 78 77 77 78 79 79 80 81 81 81 81 82 82 83
73 73 73 74 76 78 78 77 76 76 75 75 75 75 75 73 73 73 74 73 73 73 74 75 76 78 79 80 81 81 80 79 78 77 75 74 73 73 73 73 73 74 75 76 77 78 79 80 81 82 83 83 83 84 85 87 88 88 88 88 88 88 88 88 87 86 85 83 82 82 81 82 82 82 82 83 84 84 85 85 85 84 84 84 84
75 75 75 77 79 80 80 80 79 79 77 77 77 78 77 76 76 76 75 75 75 75 76 76 77 78 80 81 82 81 79 78 77 77 76 75 74 75 75 75 75 76 77 78 79 79 80 81 82 83 83 83 84 86 88 89 91 91 90 89 89 89 89 88 88 87 85 84 84 84 84 85 85 85 86 86 87 87 87 87 86 85 84 83 82
79 79 79 80 82 83 83 83 83 82 80 80 80 79 78 77 75 75 75 76 76 77 77 78 79 79 80 81 80 78 77 77 77 77 76 75 75 76 76 76 77 77 78 79 79 80 81 82 83 83 84 85 87 89 91 92 93 92 91 90 90 90 89 89 88 87 86 86 86 86 87 88 88 88 89 89 88 88 87 86 85 83 82 80 78
83 83 83 84 85 86 86 86 86 84 83 82 81 79 77 75 74 74 76 77 78 79 80 80 80 81 80 79 77 76 76 77 77 76 76 76 76 76 76 77 78 79 79 80 80 81 82 83 83 84 86 88 90 91 94 95 94 93 92 91 91 90 89 88 88 87 88 88 89 90 90 90 90 90 90 89 89 88 86 85 83 81 79 77 74
86 87 87 88 88 89 89 90 89 87 85 84 83 81 79 77 76 78 79 80 80 81 82 82 81 81 80 77 76 77 78 78 77 76 76 76 76 76 76 77 79 79 80 80 81 82 82 83 85 87 88 90 92 95 97 96 95 94 93 92 91 90 89 88 89 90 91 91 92 92 92 92 91 90 89 89 88 87 85 83 81 78 75 72 69
90 91 92 92 92 93 92 91 89 87 86 85 85 85 82 80 81 82 83 83 84 84 84 83 81 80 79 77 77 78 78 77 77 77 77 77 76 76 76 78 79 80 80 81 81 82 83 85 87 89 90 92 95 98 99 98 96 95 94 93 91 90 89 89 91 92 93 93 93 93 93 92 91 90 89 88 86 84 82 80 76 73 70 67 65
93 94 95 94 94 95 94 91 88 86 85 86 87 86 84 83 85 87 87 86 86 85 84 83 81 80 78 77 77 77 77 78 78 78 78 76 75 76 77 79 80 80 80 81 82 84 86 88 90 90 92 95 98 100 101 99 98 96 94 92 90 90 91 92 94 94 94 94 93 92 91 90 89 88 86 84 82 79 76 74 71 67 65 63 61
92 93 94 95 96 96 93 90 88 88 87 88 87 85 85 87 89 90 88 87 86 85 84 83 81 79 78 77 78 78 78 79 79 78 77 76 75 77 79 80 80 80 80 81 84 86 89 90 90 92 94 98 101 103 101 99 97 95 92 91 91 91 93 94 95 95 94 93 91 89 88 87 85 84 82 79 76 73 70 68 65 63 60 58 57
83 87 90 93 94 94 93 93 93 92 90 89 88 87 88 90 90 89 88 87 86 85 83 82 80 79 78 78 79 79 79 79 79 78 76 76 76 78 79 79 79 80 81 83 86 89 90 91 92 95 98 101 103 102 99 96 94 92 91 91 91 92 94 95 95 94 93 91 89 87 86 84 82 79 76 73 70 67 65 63 60 58 56 55 54
75 77 79 82 85 87 87 87 86 84 84 85 85 86 87 87 87 86 86 85 84 83 81 80 79 79 79 78 78 79 80 79 78 77 76 76 77 78 79 78 79 81 82 85 88 90 91 92 95 98 101 104 104 101 96 93 91 90 90 92 92 93 94 95 95 94 92 90 89 87 85 82 79 75 71 68 65 63 60 58 56 54 53 52 51
70 71 72 76 79 79 78 76 75 75 77 78 79 80 82 83 84 84 83 82 81 80 79 78 78 79 79 79 79 79 79 78 77 76 76 76 77 78 78 79 80 82 85 88 90 91 92 95 98 102 106 106 102 96 92 90 89 90 92 93 94 94 95 96 95 93 91 89 88 86 83 79 74 70 66 63 61 58 56 53 51 50 50 49 47
68 73 76 79 79 77 75 75 75 75 76 76 78 81 83 84 84 83 81 80 80 80 80 79 79 80 80 79 79 79 78 76 76 75 75 76 77 78 79 81 82 84 87 90 92 93 95 98 102 106 108 105 97 92 90 89 90 91 92 94 94 94 94 94 92 90 88 86 84 81 76 72 68 65 62 59 57 55 52 50 48 47 46 46 45
68 70 73 75 75 75 75 75 75 76 78 80 83 85 85 85 84 83 82 81 81 81 81 81 80 80 79 78 78 77 76 75 76 76 76 77 78 79 81 82 83 85 88 92 94 95 98 102 105 108 108 102 93 90 90 90 90 92 93 93 93 93 93 91 89 87 85 83 79 74 70 66 63 61 59 56 54 52 50 47 46 45 44 43 42
70 71 71 72 74 75 76 77 80 83 85 85 85 85 84 84 83 83 83 83 82 81 81 80 79 78 77 76 75 74 74 74 75 75 76 77 78 79 81 82 84 88 92 94 96 98 101 105 107 109 108 101 93 91 91 91 91 93 93 93 92 92 91 89 87 85 83 78 73 67 64 61 59 57 55 53 51 49 47 46 44 43 42 42 40
69 72 73 74 77 80 83 87 89 89 87 85 84 84 84 83 83 82 81 80 79 79 78 77 75 75 74 74 73 72 71 71 71 72 73 75 77 80 82 85 88 92 94 96 97 100 105 108 109 110 109 102 96 93 91 91 92 94 93 92 92 92 90 87 85 84 79 73 67 62 58 56 54 53 51 49 47 46 45 44 43 41 41 40 39
76 77 78 80 85 89 93 95 94 91 88 86 84 83 81 80 78 77 76 76 75 75 73 72 72 72 71 70 68 67 67 67 69 72 75 78 81 84 87 89 92 93 95 97 100 104 108 109 110 112 109 102 96 93 92 92 94 93 92 92 91 90 88 86 83 80 74 67 62 59 56 53 51 50 48 46 44 43 42 41 41 40 39 39 38
83 85 86 89 93 95 96 95 92 89 86 82 80 77 75 74 73 71 71 71 70 69 68 69 69 68 66 65 64 65 67 70 74 77 80 82 85 87 88 89 91 93 96 100 104 108 109 110 112 113 108 101 95 93 93 94 94 92 91 91 90 88 86 84 80 75 68 62 58 55 53 51 49 47 46 44 43 41 40 40 39 38 38 37 36
86 88 90 92 93 93 91 89 86 83 79 76 74 72 71 69 67 65 64 64 64 65 66 66 65 64 63 64 65 68 71 75 79 81 82 84 85 85 87 89 92 96 100 104 108 110 110 111 113 112 106 99 95 93 94 94 93 91 91 90 88 86 84 81 76 69 64 59 55 52 50 48 47 46 45 43 41 40 39 39 38 37 36 36 35
84 85 86 87 86 84 81 78 75 72 70 69 69 67 65 63 61 60 61 62 63 64 65 64 64 64 65 67 68 71 74 77 79 80 81 83 84 87 90 93 97 101 105 108 110 111 111 113 114 110 103 97 95 94 94 93 91 91 90 88 85 84 81 77 70 64 60 57 54 51 49 47 45 45 44 42 40 39 38 37 37 36 35 34 33
81 81 81 79 76 73 70 67 64 62 62 63 63 60 58 57 58 60 62 63 64 65 65 65 66 67 68 69 71 73 75 77 79 80 83 86 89 92 96 100 103 106 108 110 111 112 113 115 113 107 100 96 95 94 94 92 90 90 88 85 83 81 77 71 65 61 58 55 53 51 48 46 44 42 41 41 39 38 37 36 35 35 34 33 32
81 79 76 72 69 65 62 58 55 53 53 55 55 54 54 56 59 61 63 64 66 66 67 67 67 67 68 71 73 75 77 79 82 85 88 92 95 99 101 104 106 107 109 110 111 113 114 114 110 102 96 94 94 94 92 91 89 88 85 82 81 78 72 65 61 57 54 53 52 49 47 45 44 42 40 38 38 37 36 35 34 33 32 32 31
72 69 65 61 58 56 53 50 47 48 50 51 51 53 55 58 61 63 65 66 67 66 67 67 68 69 72 74 76 79 82 84 87 91 94 97 100 102 104 106 108 109 110 111 113 114 115 112 105 98 94 93 93 92 90 89 87 85 82 80 77 72 65 59 55 53 51 50 49 48 46 44 43 42 40 38 36 35 34 33 33 32 31 30 29
57 53 51 48 47 47 47 47 48 52 55 55 55 56 58 60 62 65 67 68 68 69 70 72 73 75 77 79 81 85 88 90 93 95 97 100 103 104 106 108 110 111 112 113 115 116 114 109 102 96 93 92 91 90 88 87 84 82 80 77 72 66 60 55 52 49 48 47 47 47 46 43 42 41 40 37 35 34 33 32 32 31 29 28 27
44 42 41 41 42 44 47 50 53 57 60 60 60 61 62 63 64 66 68 70 73 74 76 78 79 81 82 84 87 90 91 93 94 97 99 102 105 107 108 110 111 113 114 116 117 115 110 104 98 93 91 90 89 88 86 84 81 79 76 73 67 61 56 52 49 47 46 45 45 46 45 44 41 40 38 37 35 33 32 31 30 30 28 27 26
42 42 43 44 45 47 50 54 58 60 62 63 64 65 66 66 68 69 72 74 76 78 80 83 84 86 87 89 90 92 93 95 97 99 102 105 107 108 110 112 114 116 117 117 115 110 103 97 92 89 89 88 87 84 82 80 78 76 73 68 62 57 52 49 47 46 45 44 44 45 45 44 42 39 37 36 35 33 31 30 29 29 28 26 25
47 48 50 51 51 52 54 58 61 62 64 66 68 69 70 72 73 74 76 77 79 81 84 86 88 89 90 91 93 95 97 99 100 102 104 105 107 110 113 115 117 118 118 115 109 102 94 90 88 87 87 86 83 81 79 77 75 72 68 63 58 54 50 47 45 44 44 43 43 44 44 43 42 39 37 35 33 32 30 29 28 28 27 26 25
52 53 55 56 57 59 61 63 64 66 69 71 72 73 75 76 77 78 80 81 83 84 86 88 89 90 92 94 96 99 100 101 102 103 104 107 109 111 114 117 118 117 113 106 99 93 88 87 86 85 84 82 80 78 77 75 72 68 63 58 54 51 48 45 43 42 42 42 42 42 42 42 41 40 37 34 32 31 30 28 27 27 26 25 24
57 58 60 61 62 64 65 67 68 70 72 74 76 78 79 80 81 83 84 85 86 86 88 90 92 93 95 97 99 100 101 102 103 104 106 109 111 113 115 116 114 109 102 95 90 88 86 85 84 82 81 79 78 76 74 72 69 64 58 53 50 48 46 43 41 41 41 41 41 41 40 40 40 39 37 34 32 30 29 28 26 26 25 24 23
61 63 65 66 67 68 70 72 73 74 75 77 78 79 81 82 83 84 85 86 87 89 91 93 94 95 96 97 98 100 102 103 105 106 108 111 113 114 114 111 106 99 93 88 86 85 84 82 81 79 78 77 75 74 72 69 65 60 55 51 48 46 44 42 40 40 40 40 39 39 38 38 38 38 37 35 32 30 28 27 26 25 24 23 22
65 67 69 70 72 73 74 76 76 77 78 79 80 81 82 84 85 87 88 90 91 92 93 93 94 94 95 97 99 102 104 106 108 109 111 112 112 111 108 103 96 91 88 85 83 82 81 80 78 77 75 74 73 72 69 65 61 57 53 50 47 45 43 41 40 40 39 39 38 37 36 36 36 37 37 35 32 30 28 27 25 24 23 22 22
69 71 72 74 75 76 78 79 80 80 82 83 84 85 86 87 88 89 90 91 92 93 93 93 94 96 98 100 102 104 106 108 110 111 111 109 107 105 100 95 91 87 85 83 81 80 79 78 76 74 73 73 71 69 65 61 57 53 50 48 46 44 42 41 40 39 39 38 37 36 35 34 34 35 35 35 33 30 28 26 25 24 23 22 21
73 74 75 76 78 79 80 81 81 82 82 84 84 85 85 86 88 89 91 93 95 96 97 98 99 101 102 103 104 106 107 108 109 108 107 104 101 98 94 91 89 86 84 82 80 79 78 76 75 73 72 71 69 66 62 58 54 50 48 46 44 43 42 41 40 39 38 37 36 36 35 34 33 33 34 34 33 31 28 27 25 23 22 21 21
Wind_Direction
282 286 289 291 294 297 299 299 299 300 302 303 304 306 307 308 309 310 312 313 314 315 316 317 318 319 320 320 320 321 322 323 324 325 326 326 326 326 325 323 322 321 320 319 318 317 316 316 317 318 319 320 319 318 322 324 323 322 322 322 321 319 317 314 313 313 312 309 307 305 303 300 297 294 290 288 290 291 291 290 289 288 285 284 285
279 284 286 289 293 295 296 296 297 298 299 301 303 305 306 306 307 309 311 312 313 314 315 316 317 318 319 319 320 320 321 322 323 324 325 325 326 325 324 323 322 321 319 318 317 316 316 317 318 318 320 319 316 316 321 324 323 322 321 321 321 319 316 314 312 311 311 310 307 304 301 298 294 292 289 286 286 286 286 285 284 283 282 282 283
278 282 285 288 290 291 292 294 295 296 297 299 301 303 303 304 306 308 310 311 312 313 314 315 316 317 317 317 318 319 320 321 322 322 323 324 325 325 324 323 322 321 320 319 317 316 317 318 319 319 319 319 316 315 320 323 322 321 321 320 319 317 315 313 312 311 311 311 310 307 304 301 298 294 291 287 284 282 281 280 280 279 279 280 280
276 280 282 285 287 288 289 291 292 294 295 298 299 300 301 303 304 306 308 309 311 312 312 313 315 315 315 316 317 318 319 320 320 321 322 323 324 325 323 322 322 321 320 320 318 316 317 318 319 319 318 317 315 315 318 322 322 322 321 320 318 316 315 314 314 313 313 314 312 310 309 306 304 300 296 291 285 281 278 276 275 276 276 277 278
274 277 279 282 284 285 286 288 291 292 293 296 297 298 299 301 303 305 307 308 309 310 311 312 313 313 314 314 316 317 318 318 319 320 321 322 323 324 322 321 321 321 320 319 317 316 316 317 318 318 317 315 313 312 317 321 322 322 321 320 319 317 316 316 316 315 316 316 314 312 311 309 307 303 299 293 286 279 275 272 272 275 277 277 277
272 275 277 279 282 282 283 286 289 290 291 293 295 296 297 298 301 303 305 307 308 308 309 310 311 312 312 312 314 315 316 317 318 320 320 321 322 322 321 320 320 319 318 317 316 315 316 317 317 317 316 316 312 311 315 320 321 320 321 320 319 319 319 319 318 318 318 318 315 313 313 312 310 306 301 296 287 280 275 271 270 272 275 277 278
271 273 275 277 279 280 282 284 287 288 289 291 292 294 295 296 299 302 304 306 307 308 308 309 309 310 310 311 311 313 314 315 317 318 320 321 321 321 320 319 318 318 318 317 316 316 317 317 317 317 318 318 316 315 316 319 320 319 320 320 320 320 320 320 320 320 320 319 317 315 315 314 314 311 305 298 292 285 276 270 269 272 274 276 279
271 272 273 275 277 279 280 283 285 286 287 289 290 292 293 295 297 300 302 304 305 306 307 307 308 308 308 309 310 312 313 314 316 317 318 320 320 319 318 317 317 317 317 317 316 317 318 316 315 316 317 317 317 317 317 318 319 319 319 319 320 319 319 319 319 319 319 318 317 317 316 315 315 313 308 301 295 290 279 268 266 269 273 276 279
270 271 272 274 275 277 279 281 283 284 285 287 289 290 292 294 297 299 301 302 302 304 305 305 306 306 307 308 310 311 312 313 314 315 317 319 319 317 316 314 315 316 316 316 316 317 317 315 313 314 314 315 316 318 318 318 318 319 319 319 319 319 319 319 319 318 318 318 317 317 316 315 315 314 310 303 297 291 282 271 264 264 267 272 276
269 270 271 272 274 276 277 279 280 282 283 285 287 289 291 294 296 298 300 300 301 303 303 304 304 305 306 308 309 310 311 312 314 314 315 317 317 315 313 313 314 315 315 316 316 317 317 315 312 310 310 313 316 316 317 318 318 318 319 319 319 319 318 318 318 318 318 318 317 317 316 315 314 313 309 304 297 291 285 278 271 267 266 268 271
269 270 271 272 273 274 275 277 279 280 282 284 286 288 291 294 296 298 299 300 301 302 303 303 304 305 306 308 309 310 311 312 313 314 315 316 316 315 313 313 314 315 315 315 316 317 316 313 309 308 310 313 315 316 317 318 318 318 318 318 319 319 318 317 317 317 317 318 317 316 316 314 313 311 307 302 297 292 288 284 279 274 271 270 270
268 269 270 271 272 273 275 277 278 280 282 284 286 288 291 293 295 296 297 299 301 302 303 304 305 306 307 309 309 310 310 312 313 314 314 315 315 315 314 314 315 315 315 315 316 316 314 310 309 310 312 314 315 316 317 317 317 317 318 318 319 318 317 316 316 317 317 317 316 316 314 313 311 309 305 301 298 296 293 290 286 282 278 276 276
267 269 270 271 272 273 275 277 279 281 282 284 286 288 290 292 294 294 295 298 301 302 303 304 305 306 307 308 309 309 310 311 312 313 314 314 315 315 315 315 316 315 315 316 316 315 312 311 311 313 314 315 316 317 317 317 317 317 317 317 317 317 316 315 316 316 317 316 316 314 313 312 310 306 302 301 299 297 294 291 289 286 285 284 283
267 269 270 272 273 274 276 277 279 281 283 284 286 288 290 292 293 294 295 297 300 302 303 304 304 305 306 307 308 309 310 311 312 313 313 314 315 315 316 316 316 316 316 316 316 315 314 313 314 314 315 316 317 317 317 316 316 316 316 316 316 315 315 315 316 316 316 316 315 314 312 311 309 305 302 300 299 297 295 293 291 290 290 289 287
267 268 270 272 273 274 276 278 280 282 283 285 286 288 290 291 293 294 295 297 300 301 302 303 303 304 305 306 307 308 309 310 311 312 312 313 314 315 315 315 315 316 316 316 316 315 314 314 315 315 316 316 317 317 316 315 315 315 315 316 316 315 315 316 316 316 316 315 315 314 312 310 308 305 303 301 299 298 297 295 293 292 292 290 288
267 268 270 272 274 275 277 279 281 282 284 285 286 288 290 292 293 294 295 297 299 301 302 302 303 304 305 306 307 307 308 309 310 311 312 313 314 315 315 315 315 316 316 315 314 314 314 314 314 315 315 316 316 315 315 315 314 314 315 316 316 316 316 316 316 316 316 315 314 313 311 309 307 306 304 302 301 299 298 296 294 293 292 290 289
268 270 271 273 275 276 278 280 282 283 284 286 288 289 291 292 293 293 295 297 299 300 301 302 303 304 305 306 307 307 307 308 309 311 312 313 314 315 315 315 315 315 315 314 313 313 313 314 314 314 314 315 315 315 315 314 314 315 316 316 316 316 316 316 316 316 316 315 314 313 311 310 308 306 305 303 302 301 299 297 296 295 293 292 290
269 271 272 274 276 277 279 281 282 283 285 286 288 290 292 293 292 293 295 297 298 300 301 302 303 304 305 307 307 308 308 308 310 312 313 313 314 314 314 314 314 314 313 313 312 313 313 313 314 314 314 314 314 314 314 314 315 316 316 316 316 316 316 316 316 316 315 314 314 313 312 310 309 307 305 304 303 302 300 299 297 296 295 294 293
268 270 272 274 276 277 279 280 281 283 284 287 288 289 291 291 291 292 295 297 298 299 300 301 302 304 305 306 307 308 307 308 310 312 312 313 314 314 313 313 313 313 312 312 312 312 312 313 313 313 314 314 314 314 315 315 316 316 316 316 316 316 316 316 316 315 315 314 314 313 312 311 309 308 306 305 303 302 301 300 299 298 297 295 294
268 270 272 274 276 277 279 280 281 283 284 286 287 288 289 289 289 291 294 296 296 297 299 300 301 303 305 305 306 306 306 307 309 310 311 312 312 312 313 312 312 312 312 311 311 311 312 312 313 313 313 313 314 315 315 316 316 316 316 316 316 316 316 316 316 315 315 314 314 313 312 310 309 308 306 305 303 302 302 301 300 299 298 297 296
270 272 274 275 276 277 279 280 281 283 284 285 286 287 288 288 288 290 292 294 295 297 298 299 301 302 303 304 305 304 304 306 307 308 310 311 311 311 312 311 311 311 311 310 310 310 311 312 312 313 313 314 315 316 316 316 316 316 316 316 316 316 316 316 315 315 315 314 313 312 311 310 308 307 305 304 303 302 302 301 301 300 299 298 297
273 275 275 276 276 277 279 280 281 283 283 284 285 286 287 287 287 289 291 293 294 296 297 298 300 301 302 303 303 303 303 304 306 308 309 310 310 310 310 310 310 310 310 309 309 310 311 311 312 313 314 315 315 316 316 317 317 317 317 316 316 316 316 315 315 315 315 314 312 311 310 309 307 306 305 304 304 303 302 302 302 301 301 300 299
275 276 276 276 277 277 278 280 281 282 283 283 284 285 286 285 287 289 292 293 294 295 297 298 299 300 301 302 301 300 301 303 305 307 308 308 308 309 309 309 309 309 308 308 309 310 310 312 313 314 315 315 316 317 318 318 317 317 316 316 316 316 316 316 316 315 314 313 311 310 309 308 307 306 305 305 305 304 304 303 303 302 302 301 300
275 276 276 276 277 277 278 280 280 281 281 282 283 284 284 285 287 290 292 293 293 295 296 298 299 300 300 300 299 299 301 303 304 305 306 306 307 307 307 307 307 307 307 308 309 310 311 312 314 314 315 316 317 318 319 318 317 316 316 316 316 316 316 316 315 314 313 312 311 310 309 308 307 307 306 306 306 305 305 304 303 303 302 301 300
275 275 275 276 277 277 277 279 280 279 279 280 282 283 283 284 287 290 291 292 293 294 296 297 297 298 298 298 297 299 301 302 302 303 304 305 305 305 305 305 306 306 307 308 309 310 312 313 314 315 316 317 318 319 319 318 317 316 316 316 316 316 316 316 314 313 312 312 311 310 309 309 308 307 307 306 305 305 304 303 303 303 302 301 300
272 273 274 275 275 275 276 278 278 277 277 279 282 282 281 283 287 289 290 291 292 293 294 295 296 296 297 296 297 298 300 300 301 302 303 303 304 304 304 305 305 306 307 308 310 311 313 314 315 316 316 317 318 319 318 317 316 316 316 316 317 317 316 315 314 313 313 312 311 310 309 308 308 307 306 306 305 304 304 303 303 302 302 301 300
271 272 272 272 272 273 275 275 276 275 276 279 280 279 279 282 286 287 288 289 291 292 293 294 294 295 295 295 296 298 298 299 300 301 302 302 302 303 303 304 305 305 307 308 310 312 314 315 316 316 317 318 318 318 317 316 315 316 316 316 317 316 315 314 313 313 312 311 310 309 309 308 308 307 306 306 305 304 304 303 303 302 301 301 300
274 272 272 272 272 272 272 272 272 274 276 277 277 277 279 282 284 285 286 288 289 290 291 293 293 294 294 295 296 297 298 299 299 300 300 301 301 302 303 303 304 305 307 309 311 313 315 315 316 317 317 318 318 318 317 315 315 316 316 316 316 315 314 313 313 313 312 312 311 311 310 310 309 309 308 307 306 305 305 304 303 302 301 300 300
273 269 268 268 267 267 268 269 270 272 274 275 275 276 278 280 282 284 286 287 288 289 290 292 292 292 293 294 295 296 297 298 298 298 298 299 299 300 301 302 303 305 308 310 312 314 315 316 316 317 317 318 318 317 316 315 315 315 315 315 315 315 314 314 314 314 314 314 314 313 313 312 311 310 309 308 307 306 305 304 302 301 300 299 299
263 260 258 257 258 260 264 268 271 273 273 274 276 277 279 281 283 284 285 286 288 289 290 290 290 291 292 293 294 295 295 296 296 296 297 297 298 300 301 303 305 307 309 311 313 314 315 316 316 316 317 318 317 316 315 315 315 314 314 315 316 316 316 316 316 316 315 315 315 314 313 312 311 310 310 308 307 306 305 303 302 300 299 299 298
251 253 252 252 255 259 264 268 270 272 273 274 276 279 281 282 283 284 285 286 287 287 288 288 289 290 292 293 293 294 294 294 294 295 295 297 298 300 303 305 307 309 310 311 313 313 314 315 315 316 318 318 317 315 314 314 315 314 315 316 316 316 316 316 316 316 315 315 315 314 312 312 311 310 309 308 307 306 305 303 302 300 299 299 298
240 244 249 252 255 260 264 266 269 272 274 276 279 281 282 282 283 284 284 285 285 286 287 288 289 290 292 292 293 293 293 293 293 294 296 298 301 303 305 307 308 308 309 310 311 312 313 314 315 317 319 318 316 315 314 314 314 314 315 315 316 316 316 316 316 316 316 316 315 314 313 312 310 309 309 308 306 306 304 303 302 300 299 299 299
237 241 247 252 256 259 263 268 273 276 279 280 281 281 282 282 283 283 284 285 285 286 287 288 289 290 291 291 291 291 292 293 295 297 300 302 303 304 304 305 305 306 307 308 310 312 313 314 315 318 319 318 315 314 314 314 314 315 315 316 316 316 317 317 317 317 317 316 315 314 312 311 310 309 308 307 306 305 304 303 302 300 299 299 299
243 245 248 252 255 259 266 272 276 279 280 280 280 281 281 282 283 283 284 285 286 286 288 289 290 290 289 290 291 292 294 296 297 299 300 301 301 301 302 303 304 305 306 308 310 312 313 314 315 318 318 317 315 314 314 314 315 316 316 316 317 317 317 318 318 318 317 316 315 313 312 310 309 308 308 307 306 304 303 302 301 301 300 300 300
247 249 251 254 258 263 269 273 275 277 278 279 280 281 281 282 282 283 284 284 285 287 288 289 289 289 290 292 293 295 295 295 296 297 298 298 299 300 301 303 304 305 306 308 310 312 313 314 316 317 317 316 314 314 315 315 316 316 317 317 317 318 318 319 319 318 317 316 315 313 312 311 310 310 309 308 307 305 303 302 302 302 301 301 302
253 256 258 261 264 266 269 271 273 274 276 277 278 279 279 280 281 281 283 284 286 288 288 289 290 292 293 294 294 293 293 294 296 297 298 299 300 301 302 303 304 305 306 308 310 312 314 315 316 317 317 315 315 315 315 316 316 317 317 318 318 318 319 319 318 317 316 315 314 313 312 312 312 311 311 310 308 306 305 304 304 303 303 303 303
258 260 262 264 264 266 268 269 272 273 275 275 276 276 277 278 279 280 283 286 288 290 290 292 294 295 295 293 292 291 292 294 297 298 299 299 301 302 303 304 304 306 307 309 311 313 314 315 316 317 316 315 314 315 315 316 317 317 318 318 318 319 319 319 318 316 315 314 314 313 314 314 314 314 313 312 310 308 306 305 305 305 305 305 304
259 261 262 263 264 266 268 269 271 273 273 274 274 275 276 277 277 280 285 288 290 292 293 294 295 295 293 292 290 290 291 293 295 296 297 299 300 302 303 304 305 306 308 310 312 313 314 315 316 316 315 314 314 315 315 316 317 318 318 318 318 319 319 318 316 315 315 315 315 316 317 317 316 315 314 312 310 308 306 306 306 306 306 305 303
260 262 262 262 264 265 266 268 270 272 273 274 275 275 275 275 277 281 286 290 292 293 294 294 293 292 290 289 287 288 289 291 293 295 297 299 300 302 303 304 305 307 309 311 312 313 314 315 315 315 314 313 314 314 316 316 317 318 318 318 318 319 318 317 316 316 316 317 317 317 318 317 316 315 313 312 310 308 306 306 306 306 306 304 302
259 259 260 261 261 262 263 266 269 271 272 273 274 274 274 275 277 282 287 291 292 292 291 290 289 287 286 285 286 287 290 292 294 296 298 300 301 302 303 304 306 308 309 311 311 312 313 314 314 313 313 313 313 314 316 316 317 318 318 318 318 318 317 316 316 316 316 316 316 316 317 317 316 315 314 313 310 308 306 306 307 307 305 303 301
256 256 257 257 258 259 262 267 270 271 271 271 271 271 273 276 279 283 287 288 288 287 286 285 284 284 284 285 287 289 291 293 295 297 299 300 301 302 304 305 306 308 309 310 310 311 312 312 312 311 312 312 313 314 315 316 317 318 318 318 318 317 316 314 314 313 313 314 314 314 316 317 317 316 315 314 311 308 307 306 307 307 305 303 300
251 251 252 253 257 261 266 268 269 269 269 269 269 269 271 274 278 281 283 283 283 283 282 282 282 283 284 286 287 289 291 293 295 297 299 300 302 303 304 305 306 307 308 309 310 310 311 310 310 310 311 312 313 314 315 316 317 317 317 317 317 315 314 312 312 312 312 313 314 315 316 317 317 317 316 315 313 310 307 307 307 307 306 303 300
244 246 248 251 256 260 263 264 264 266 268 270 271 271 272 274 276 278 279 280 280 281 281 282 282 283 285 287 288 289 291 293 296 298 300 301 302 303 304 305 305 306 307 308 309 309 309 309 309 310 311 312 313 314 315 316 317 317 317 316 315 313 312 311 311 312 313 314 315 315 316 317 318 317 316 315 314 311 308 307 307 308 307 304 301
246 248 251 253 257 260 261 262 263 265 268 271 272 273 273 274 275 276 277 277 278 279 281 282 283 285 286 287 289 290 293 295 297 299 300 301 302 302 303 304 305 306 307 308 308 308 308 309 309 310 311 312 313 314 315 316 316 316 316 315 313 312 311 311 311 312 314 315 316 316 315 316 317 318 317 316 315 312 309 307 307 308 307 305 301
255 256 257 258 260 262 263 263 265 266 268 270 271 272 273 273 274 274 275 276 278 279 281 282 284 285 287 289 290 292 294 296 298 299 300 300 301 302 303 304 305 306 307 307 307 308 308 309 310 311 311 312 313 314 315 315 316 316 315 313 311 310 310 311 312 313 314 315 315 315 315 315 316 317 317 316 315 313 310 307 306 307 307 304 302
260 260 261 261 262 263 263 264 265 267 268 269 270 271 271 272 273 275 276 277 279 280 281 282 284 286 288 290 292 294 295 296 297 298 299 300 301 303 303 304 305 306 306 307 307 308 309 310 310 311 312 312 313 314 315 315 315 314 313 311 309 308 309 310 311 312 313 314 314 314 314 314 314 315 316 316 315 313 311 308 306 306 306 304 301
261 262 263 263 263 263 263 264 265 266 267 268 269 270 272 273 274 275 276 277 279 280 281 283 285 287 289 291 292 293 294 295 296 298 299 301 302 302 303 304 305 305 306 306 307 308 309 310 311 311 312 313 313 314 314 314 314 313 311 308 307 306 307 308 310 312 312 312 312 312 312 313 313 314 315 315 315 314 312 308 305 305 304 303 301
258 261 262 262 262 262 263 264 265 265 266 267 268 269 271 272 273 275 276 278 280 282 283 285 287 288 289 291 292 293 294 295 297 299 300 301 301 302 303 304 304 305 306 307 308 309 309 310 311 312 312 313 313 314 314 313 312 311 309 307 305 305 306 308 310 311 311 311 310 310 311 312 312 313 313 314 314 313 312 309 306 303 303 303 300
256 258 259 260 261 262 262 262 263 264 266 267 269 270 272 273 275 277 278 280 281 282 284 285 287 288 290 291 293 294 296 297 298 299 300 300 301 302 303 304 305 306 306 307 308 309 310 311 311 311 312 312 313 313 313 312 310 308 306 305 304 305 306 308 310 310 310 310 310 310 311 312 312 311 312 312 313 313 312 310 306 303 302 301 299
255 256 258 259 261 262 263 264 265 266 267 268 270 271 272 274 275 277 278 280 281 282 284 286 288 289 291 293 294 296 297 298 298 299 299 300 301 302 303 304 305 306 307 308 309 309 310 311 311 311 311 312 312 312 311 310 308 305 303 303 303 304 306 307 308 309 309 309 310 312 313 313 312 311 310 311 312 312 311 310 307 303 301 299 298
255 256 257 259 261 262 263 264 265 266 266 267 269 270 272 274 276 278 280 281 283 284 286 287 289 290 291 292 293 294 295 296 297 298 299 300 301 302 303 304 306 306 307 308 309 310 310 310 310 311 311 311 311 311 310 307 305 302 301 300 301 303 304 306 307 308 308 309 311 312 314 314 313 311 310 309 310 310 311 310 308 304 300 298 296
Height
10971 10972 10972 10972 10972 10971 10971 10970 10969 10967 10966 10965 10965 10964 10963 10962 10961 10961 10960 10959 10957 10956 10954 10952 10950 10948 10945 10942 10940 10938 10936 10934 10933 10933 10932 10929 10927 10924 10922 10919 10916 10913 10911 10909 10907 10905 10903 10901 10898 10895 10892 10889 10886 10884 10882 10879 10876 10874 10871 10868 10865 10862 10860 10857 10853 10851 10849 10847 10844 10843 10841 10839 10838 10836 10834 10830 10827 10824 10822 10821 10820 10818 10817 10815 10814
10967 10968 10968 10968 10968 10968 10967 10966 10965 10964 10962 10961 10961 10961 10959 10958 10958 10957 10956 10955 10953 10952 10950 10948 10946 10944 10941 10939 10936 10933 10931 10929 10927 10927 10926 10925 10923 10920 10917 10915 10912 10909 10907 10904 10902 10900 10898 10896 10894 10891 10888 10885 10882 10880 10878 10876 10873 10870 10867 10863 10860 10857 10854 10851 10848 10844 10842 10840 10837 10834 10832 10830 10829 10828 10827 10826 10823 10819 10816 10814 10813 10812 10810 10808 10807
10963 10964 10964 10965 10964 10964 10963 10962 10961 10960 10958 10958 10958 10957 10956 10955 10954 10953 10952 10951 10949 10948 10946 10944 10942 10940 10938 10936 10933 10931 10929 10926 10924 10921 10920 10920 10918 10915 10912 10909 10907 10905 10902 10900 10897 10894 10892 10890 10888 10885 10882 10880 10877 10874 10873 10871 10869 10866 10863 10859 10855 10852 10850 10847 10843 10839 10836 10833 10831 10828 10824 10821 10819 10817 10817 10816 10815 10812 10810 10808 10806 10805 10804 10802 10800
10959 10959 10960 10960 10960 10959 10958 10958 10957 10956 10955 10954 10954 10953 10952 10951 10950 10949 10949 10947 10946 10944 10942 10940 10938 10936 10934 10932 10930 10928 10926 10924 10921 10918 10916 10914 10913 10910 10907 10904 10902 10899 10897 10895 10892 10889 10887 10884 10881 10878 10876 10873 10871 10868 10866 10864 10862 10860 10857 10854 10851 10847 10844 10842 10838 10835 10831 10827 10823 10821 10818 10814 10810 10808 10807 10806 10804 10803 10802 10800 10798 10797 10796 10795 10792
10954 10955 10956 10956 10955 10954 10954 10953 10953 10952 10951 10950 10950 10949 10948 10947 10946 10946 10945 10944 10943 10941 10939 10937 10935 10933 10930 10927 10925 10924 10922 10920 10918 10915 10912 10910 10908 10905 10902 10899 10897 10894 10891 10889 10887 10884 10881 10879 10876 10873 10870 10867 10865 10863 10860 10857 10855 10852 10850 10847 10844 10840 10837 10834 10831 10828 10825 10821 10816 10812 10810 10808 10804 10800 10798 10796 10794 10792 10791 10791 10790 10787 10786 10786 10784
10949 10951 10951 10951 10950 10949 10948 10948 10948 10947 10946 10946 10945 10944 10944 10943 10943 10942 10941 10940 10938 10937 10935 10933 10932 10929 10927 10924 10922 10921 10919 10916 10915 10912 10909 10906 10903 10901 10898 10895 10892 10890 10887 10884 10881 10877 10875 10872 10870 10867 10864 10861 10859 10857 10855 10851 10848 10845 10842 10839 10835 10831 10828 10825 10823 10819 10817 10814 10809 10804 10801 10798 10795 10792 10789 10787 10785 10782 10782 10782 10780 10779 10778 10777 10774
10944 10946 10946 10945 10944 10944 10943 10943 10943 10942 10941 10941 10940 10940 10939 10939 10939 10939 10938 10936 10933 10931 10929 10929 10927 10925 10922 10920 10918 10917 10915 10912 10911 10909 10907 10903 10899 10896 10893 10891 10888 10886 10883 10880 10876 10872 10868 10865 10863 10860 10857 10855 10852 10850 10848 10844 10840 10837 10833 10830 10826 10822 10819 10816 10813 10810 10807 10804 10801 10797 10792 10788 10786 10783 10779 10778 10776 10774 10773 10773 10771 10770 10769 10768 10764
10938 10940 10941 10940 10938 10938 10938 10938 10938 10937 10936 10936 10935 10935 10934 10934 10934 10935 10935 10933 10930 10927 10924 10923 10922 10920 10918 10915 10913 10912 10910 10908 10906 10905 10904 10900 10896 10892 10890 10886 10883 10881 10879 10875 10871 10867 10863 10859 10856 10853 10850 10847 10844 10842 10839 10836 10833 10829 10825 10822 10818 10814 10810 10807 10804 10801 10797 10794 10790 10787 10783 10779 10776 10774 10770 10767 10766 10765 10764 10764 10763 10761 10759 10757 10753
10933 10934 10935 10934 10933 10933 10933 10933 10933 10932 10931 10930 10930 10929 10929 10929 10929 10929 10930 10929 10928 10926 10922 10918 10916 10915 10913 10910 10908 10906 10905 10903 10901 10900 10899 10897 10894 10889 10886 10883 10878 10876 10874 10870 10865 10862 10858 10854 10850 10846 10842 10839 10836 10834 10831 10827 10824 10820 10816 10813 10809 10805 10801 10798 10795 10792 10788 10785 10780 10776 10772 10768 10765 10764 10761 10758 10756 10755 10754 10754 10754 10751 10749 10747 10742
10927 10928 10928 10928 10928 10928 10928 10927 10927 10927 10926 10925 10924 10924 10923 10924 10924 10924 10923 10923 10922 10922 10920 10915 10911 10909 10908 10906 10903 10901 10899 10897 10895 10894 10892 10892 10889 10886 10882 10878 10874 10871 10868 10864 10859 10855 10852 10848 10844 10840 10836 10833 10830 10826 10823 10820 10816 10812 10807 10803 10800 10796 10792 10789 10786 10782 10779 10775 10770 10765 10761 10757 10754 10752 10750 10748 10746 10745 10743 10742 10742 10740 10738 10736 10732
10921 10921 10921 10922 10922 10921 10921 10922 10922 10921 10921 10920 10919 10919 10918 10919 10919 10918 10917 10916 10915 10915 10914 10911 10907 10903 10902 10900 10898 10895 10892 10890 10889 10887 10885 10884 10883 10880 10876 10872 10869 10865 10861 10858 10854 10850 10846 10843 10839 10835 10831 10828 10823 10820 10816 10811 10808 10803 10799 10795 10792 10788 10784 10779 10776 10772 10769 10765 10760 10755 10751 10747 10743 10741 10739 10737 10736 10734 10733 10731 10730 10728 10726 10724 10721
10915 10914 10914 10914 10915 10915 10915 10916 10916 10916 10916 10915 10914 10914 10914 10914 10914 10913 10911 10910 10909 10909 10907 10905 10902 10898 10895 10893 10890 10888 10885 10884 10882 10880 10877 10875 10874 10873 10869 10865 10862 10858 10854 10851 10848 10844 10840 10837 10833 10828 10824 10820 10816 10812 10808 10803 10799 10794 10790 10786 10783 10779 10775 10771 10767 10763 10759 10756 10751 10746 10741 10738 10734 10730 10727 10725 10723 10721 10720 10718 10716 10715 10713 10710 10709
10908 10907 10907 10906 10907 10908 10909 10910 10910 10910 10910 10909 10909 10909 10909 10910 10909 10907 10906 10904 10904 10903 10901 10899 10897 10894 10890 10887 10884 10881 10879 10877 10875 10872 10869 10867 10865 10863 10860 10856 10854 10850 10846 10843 10840 10836 10832 10828 10825 10820 10816 10812 10808 10803 10799 10794 10790 10786 10781 10777 10774 10770 10766 10762 10758 10755 10750 10746 10742 10737 10732 10729 10726 10721 10716 10714 10712 10709 10707 10705 10702 10700 10698 10696 10694
10902 10901 10900 10899 10899 10900 10902 10903 10903 10904 10904 10903 10903 10903 10904 10904 10904 10902 10900 10899 10898 10897 10895 10893 10891 10889 10886 10882 10878 10874 10872 10870 10868 10865 10862 10859 10856 10853 10850 10846 10844 10841 10837 10834 10830 10827 10823 10818 10815 10811 10807 10803 10799 10794 10790 10786 10781 10777 10773 10769 10765 10761 10757 10753 10749 10746 10741 10736 10733 10728 10722 10718 10716 10713 10708 10704 10702 10699 10696 10694 10689 10686 10684 10681 10677
10897 10896 10894 10892 10892 10893 10895 10897 10897 10898 10898 10898 10898 10898 10898 10898 10898 10897 10895 10893 10892 10891 10889 10887 10884 10883 10881 10878 10874 10869 10866 10864 10862 10860 10856 10853 10851 10847 10843 10838 10835 10832 10829 10824 10820 10816 10813 10809 10806 10802 10798 10794 10790 10786 10782 10777 10772 10768 10763 10759 10755 10750 10746 10742 10738 10735 10730 10726 10722 10718 10713 10708 10704 10701 10697 10694 10691 10688 10686 10683 10678 10674 10673 10669 10663
10892 10890 10889 10886 10885 10887 10889 10890 10891 10891 10891 10892 10892 10892 10893 10893 10893 10893 10890 10887 10885 10884 10882 10880 10877 10874 10872 10870 10866 10863 10860 10857 10855 10853 10850 10847 10844 10841 10836 10831 10827 10823 10820 10817 10813 10808 10805 10801 10798 10794 10790 10786 10783 10778 10774 10769 10764 10759 10754 10749 10745 10740 10735 10731 10727 10723 10719 10714 10710 10707 10702 10698 10693 10689 10685 10682 10680 10677 10675 10672 10667 10664 10662 10658 10652
10887 10885 10883 10881 10879 10881 10882 10883 10884 10885 10885 10885 10885 10886 10886 10886 10887 10887 10885 10882 10879 10877 10875 10872 10868 10865 10862 10859 10856 10852 10849 10848 10847 10845 10842 10838 10835 10832 10827 10822 10818 10815 10812 10809 10805 10801 10797 10794 10790 10786 10782 10779 10775 10770 10766 10761 10755 10750 10745 10739 10734 10730 10725 10720 10716 10712 10707 10703 10698 10695 10691 10687 10683 10679 10674 10670 10667 10665 10663 10659 10654 10651 10649 10645 10641
10882 10879 10878 10876 10874 10875 10876 10877 10877 10877 10877 10878 10879 10879 10878 10878 10878 10878 10877 10876 10873 10870 10867 10864 10859 10856 10853 10849 10845 10840 10836 10835 10835 10834 10832 10829 10826 10823 10818 10814 10810 10807 10803 10800 10796 10792 10789 10785 10782 10778 10774 10770 10766 10762 10757 10752 10747 10741 10736 10730 10725 10720 10715 10711 10706 10702 10697 10692 10687 10682 10678 10675 10672 10668 10663 10659 10655 10651 10649 10646 10641 10637 10634 10630 10626
10876 10874 10873 10872 10870 10869 10870 10871 10871 10871 10871 10872 10873 10871 10871 10870 10870 10869 10869 10868 10866 10864 10860 10856 10852 10848 10845 10841 10837 10832 10827 10826 10826 10825 10823 10820 10817 10814 10810 10806 10802 10799 10795 10792 10788 10784 10781 10777 10773 10769 10765 10761 10757 10752 10748 10743 10738 10732 10727 10722 10717 10711 10706 10701 10696 10691 10686 10680 10675 10670 10666 10662 10659 10655 10651 10646 10642 10637 10634 10631 10627 10623 10620 10615 10611
10870 10870 10870 10869 10866 10863 10863 10864 10864 10864 10866 10867 10866 10865 10864 10863 10862 10861 10860 10860 10858 10856 10853 10850 10846 10842 10838 10834 10830 10826 10822 10820 10819 10817 10815 10813 10809 10806 10802 10798 10795 10791 10788 10784 10780 10777 10773 10769 10765 10761 10756 10752 10747 10743 10738 10733 10728 10723 10718 10713 10707 10702 10696 10691 10686 10681 10675 10669 10664 10659 10654 10649 10646 10642 10638 10633 10628 10623 10619 10615 10612 10609 10605 10601 10596
10866 10867 10867 10864 10861 10859 10858 10857 10857 10858 10860 10860 10858 10858 10857 10856 10854 10853 10853 10852 10850 10848 10845 10843 10840 10837 10832 10828 10824 10819 10815 10814 10812 10810 10807 10805 10802 10798 10795 10791 10787 10784 10780 10776 10772 10769 10765 10761 10757 10752 10748 10743 10738 10734 10728 10723 10718 10712 10707 10703 10697 10692 10686 10681 10675 10669 10664 10659 10653 10648 10643 10638 10634 10629 10625 10620 10616 10611 10606 10601 10597 10593 10589 10585 10581
10860 10861 10861 10858 10855 10853 10852 10851 10851 10852 10853 10852 10851 10850 10849 10848 10847 10846 10845 10844 10841 10839 10837 10835 10833 10830 10826 10822 10817 10812 10808 10806 10805 10803 10800 10798 10794 10791 10788 10784 10780 10777 10773 10769 10765 10761 10757 10753 10749 10744 10740 10735 10730 10725 10719 10713 10707 10702 10697 10692 10687 10682 10677 10671 10665 10659 10653 10648 10643 10638 10633 10628 10623 10618 10612 10607 10603 10598 10594 10588 10583 10579 10575 10570 10567
10853 10853 10853 10850 10848 10846 10845 10844 10844 10845 10845 10843 10842 10842 10841 10840 10839 10838 10837 10835 10833 10831 10829 10827 10825 10823 10819 10815 10809 10804 10802 10800 10798 10796 10794 10791 10788 10784 10780 10776 10773 10769 10766 10762 10758 10754 10749 10745 10741 10736 10731 10726 10721 10715 10709 10703 10697 10692 10688 10683 10677 10672 10666 10660 10654 10648 10642 10637 10632 10627 10622 10616 10611 10606 10600 10594 10589 10584 10579 10574 10569 10565 10561 10556 10553
10844 10844 10843 10841 10840 10838 10837 10837 10837 10837 10836 10834 10833 10833 10833 10832 10831 10830 10828 10826 10824 10822 10820 10819 10817 10814 10811 10807 10802 10797 10796 10794 10792 10790 10787 10784 10781 10777 10773 10769 10766 10762 10758 10754 10750 10746 10742 10737 10733 10728 10723 10718 10712 10706 10699 10693 10687 10682 10678 10672 10667 10661 10655 10649 10643 10637 10631 10626 10621 10615 10609 10604 10598 10593 10587 10581 10576 10570 10565 10561 10556 10553 10549 10544 10540
10836 10834 10833 10832 10830 10828 10827 10828 10829 10829 10827 10826 10825 10825 10824 10823 10822 10820 10819 10817 10816 10814 10812 10810 10809 10806 10803 10799 10794 10791 10789 10787 10785 10782 10780 10777 10774 10770 10766 10762 10758 10754 10750 10746 10742 10738 10734 10730 10725 10720 10715 10709 10703 10697 10689 10682 10676 10671 10667 10662 10656 10650 10645 10639 10633 10626 10621 10616 10610 10603 10596 10591 10585 10580 10575 10569 10564 10559 10554 10548 10544 10541 10537 10533 10529
10826 10825 10823 10822 10819 10816 10817 10819 10820 10819 10818 10817 10817 10817 10815 10814 10813 10811 10810 10809 10808 10805 10803 10802 10800 10799 10796 10791 10787 10785 10783 10780 10778 10775 10772 10769 10766 10762 10758 10754 10750 10746 10742 10738 10734 10730 10726 10721 10716 10711 10706 10700 10694 10687 10680 10672 10666 10661 10656 10651 10645 10639 10634 10628 10621 10615 10610 10605 10598 10592 10585 10580 10575 10569 10564 10558 10553 10548 10543 10538 10534 10530 10527 10523 10519
10820 10817 10814 10811 10807 10806 10808 10811 10810 10809 10809 10810 10809 10808 10807 10806 10805 10803 10803 10802 10800 10797 10795 10793 10792 10790 10788 10784 10780 10778 10776 10773 10770 10767 10764 10761 10758 10754 10750 10746 10742 10739 10735 10731 10727 10723 10718 10713 10708 10703 10698 10692 10686 10678 10670 10663 10657 10652 10646 10641 10635 10629 10624 10617 10611 10606 10600 10595 10589 10582 10576 10570 10564 10558 10553 10547 10542 10537 10533 10528 10524 10520 10517 10514 10511
10811 10809 10806 10802 10798 10796 10798 10799 10799 10800 10801 10802 10801 10800 10799 10798 10797 10796 10795 10794 10792 10789 10787 10786 10784 10781 10779 10777 10774 10771 10768 10765 10762 10759 10756 10753 10750 10746 10743 10739 10735 10732 10728 10723 10719 10715 10710 10705 10700 10695 10690 10684 10677 10669 10661 10655 10649 10643 10637 10632 10627 10622 10615 10608 10602 10596 10589 10582 10576 10570 10564 10558 10552 10546 10540 10535 10530 10526 10522 10519 10515 10511 10508 10506 10503
10803 10802 10801 10797 10790 10785 10785 10787 10789 10792 10793 10793 10792 10792 10791 10790 10789 10789 10787 10786 10784 10782 10780 10779 10776 10772 10771 10770 10767 10763 10760 10758 10755 10752 10749 10746 10742 10739 10736 10732 10728 10724 10720 10716 10711 10706 10701 10696 10691 10686 10681 10676 10668 10660 10652 10647 10641 10635 10629 10624 10619 10613 10605 10596 10589 10583 10575 10567 10561 10555 10549 10543 10539 10534 10530 10524 10520 10517 10513 10510 10507 10504 10501 10498 10496
10799 10794 10792 10787 10780 10778 10779 10781 10783 10783 10783 10784 10785 10784 10783 10782 10782 10781 10779 10777 10776 10774 10772 10771 10768 10765 10763 10763 10760 10756 10753 10751 10747 10744 10741 10738 10735 10732 10728 10724 10720 10716 10712 10707 10702 10697 10693 10688 10682 10677 10672 10666 10659 10651 10645 10640 10634 10628 10621 10614 10608 10602 10594 10585 10577 10571 10564 10557 10551 10544 10538 10532 10527 10523 10520 10516 10512 10508 10505 10502 10500 10497 10494 10491 10489
10792 10783 10777 10776 10775 10775 10776 10775 10775 10775 10775 10776 10777 10776 10775 10775 10774 10773 10771 10770 10768 10766 10764 10762 10760 10757 10755 10754 10751 10747 10745 10742 10739 10737 10734 10731 10728 10724 10720 10717 10713 10708 10703 10698 10693 10689 10685 10679 10673 10668 10663 10657 10650 10643 10636 10631 10626 10619 10612 10606 10599 10592 10585 10578 10571 10564 10557 10551 10544 10537 10531 10525 10520 10515 10512 10508 10504 10501 10498 10496 10493 10490 10488 10485 10483
10781 10774 10770 10771 10773 10772 10770 10768 10768 10768 10769 10770 10770 10769 10767 10766 10765 10764 10763 10762 10760 10758 10756 10754 10752 10750 10748 10745 10742 10739 10736 10733 10730 10728 10725 10722 10719 10715 10712 10708 10705 10700 10695 10690 10686 10682 10676 10670 10664 10659 10654 10648 10642 10635 10628 10622 10617 10611 10606 10600 10593 10585 10578 10571 10563 10556 10549 10543 10536 10529 10523 10518 10513 10509 10505 10501 10498 10495 10492 10490 10487 10484 10482 10479 10477
10771 10768 10767 10768 10767 10764 10761 10761 10761 10762 10763 10763 10761 10760 10758 10757 10756 10755 10753 10752 10751 10749 10748 10746 10745 10743 10739 10736 10733 10731 10728 10725 10721 10718 10716 10713 10710 10707 10703 10700 10697 10692 10687 10682 10678 10673 10667 10660 10655 10650 10644 10639 10633 10627 10621 10614 10608 10602 10595 10589 10583 10575 10568 10560 10553 10545 10539 10533 10528 10522 10517 10511 10507 10503 10499 10495 10491 10488 10486 10483 10481 10478 10476 10474 10472
10764 10763 10763 10762 10760 10757 10755 10755 10755 10756 10756 10755 10753 10751 10750 10748 10747 10746 10744 10742 10741 10740 10739 10738 10736 10734 10731 10728 10725 10723 10720 10717 10714 10711 10709 10706 10703 10700 10696 10693 10688 10683 10678 10674 10670 10664 10658 10651 10645 10640 10635 10629 10623 10618 10612 10606 10599 10592 10584 10578 10571 10564 10557 10551 10544 10536 10530 10525 10520 10516 10511 10506 10502 10498 10494 10490 10487 10483 10481 10478 10475 10473 10471 10469 10467
10753 10755 10756 10756 10754 10751 10749 10749 10749 10749 10748 10747 10745 10743 10741 10740 10738 10736 10735 10733 10731 10731 10730 10729 10727 10725 10722 10719 10716 10714 10712 10710 10707 10705 10703 10700 10696 10692 10689 10685 10680 10674 10669 10665 10661 10655 10649 10642 10636 10630 10625 10619 10612 10607 10601 10595 10589 10582 10575 10568 10561 10554 10547 10542 10536 10529 10523 10518 10513 10508 10504 10500 10496 10492 10488 10485 10482 10479 10476 10473 10471 10468 10466 10464 10462
10743 10747 10749 10748 10746 10744 10742 10742 10742 10741 10741 10740 10737 10735 10733 10731 10729 10727 10725 10724 10723 10723 10721 10719 10717 10715 10713 10710 10708 10706 10704 10702 10700 10697 10694 10690 10687 10683 10680 10675 10670 10665 10660 10656 10651 10645 10639 10632 10626 10620 10615 10608 10602 10597 10591 10585 10579 10573 10566 10559 10552 10545 10539 10533 10527 10521 10516 10512 10507 10503 10498 10494 10490 10486 10483 10480 10477 10474 10471 10469 10466 10464 10462 10460 10458
10736 10740 10740 10739 10737 10736 10735 10734 10733 10732 10732 10730 10728 10726 10724 10722 10720 10718 10717 10716 10715 10714 10712 10710 10708 10706 10704 10702 10700 10698 10695 10693 10690 10687 10683 10680 10676 10673 10670 10665 10660 10654 10649 10645 10640 10635 10629 10622 10617 10611 10605 10598 10593 10588 10583 10576 10570 10563 10557 10551 10544 10537 10531 10525 10520 10515 10510 10505 10501 10497 10493 10489 10484 10480 10477 10475 10472 10469 10466 10464 10462 10460 10458 10456 10454
10729 10732 10732 10731 10730 10729 10727 10726 10724 10723 10722 10721 10720 10718 10716 10714 10712 10710 10709 10708 10707 10705 10702 10701 10700 10699 10697 10695 10692 10689 10687 10684 10681 10677 10674 10670 10667 10663 10659 10655 10650 10644 10639 10634 10629 10624 10618 10613 10607 10602 10596 10589 10584 10579 10574 10568 10561 10555 10549 10543 10536 10530 10524 10518 10513 10508 10504 10499 10495 10490 10487 10483 10480 10476 10473 10470 10468 10465 10462 10460 10458 10456 10454 10453 10451
10721 10722 10722 10722 10722 10720 10718 10716 10716 10715 10714 10713 10712 10710 10708 10706 10705 10703 10702 10701 10699 10697 10695 10694 10693 10691 10689 10686 10684 10681 10679 10676 10673 10669 10665 10660 10657 10653 10649 10644 10640 10636 10631 10625 10619 10613 10609 10604 10598 10592 10586 10580 10575 10570 10565 10559 10553 10547 10541 10535 10529 10522 10516 10511 10506 10501 10497 10493 10489 10485 10482 10479 10476 10473 10469 10466 10464 10461 10459 10457 10454 10452 10451 10449 10447
10714 10714 10714 10714 10713 10711 10709 10709 10709 10708 10706 10705 10704 10703 10701 10699 10698 10696 10695 10694 10692 10690 10688 10686 10685 10684 10681 10678 10675 10673 10670 10667 10664 10660 10655 10651 10646 10643 10639 10635 10631 10627 10623 10617 10612 10606 10601 10597 10592 10586 10579 10573 10567 10562 10557 10551 10545 10539 10533 10527 10522 10516 10510 10505 10500 10496 10492 10488 10485 10482 10478 10475 10472 10469 10466 10463 10460 10457 10455 10453 10451 10449 10447 10445 10443
10705 10705 10705 10705 10704 10702 10702 10702 10702 10700 10699 10698 10697 10696 10695 10693 10692 10690 10688 10686 10685 10684 10681 10679 10678 10676 10673 10670 10667 10664 10661 10658 10654 10650 10646 10641 10637 10634 10630 10626 10621 10618 10614 10609 10604 10599 10595 10590 10585 10580 10573 10566 10560 10554 10549 10544 10538 10532 10526 10521 10516 10510 10506 10502 10498 10494 10490 10486 10481 10478 10475 10471 10468 10465 10462 10459 10456 10454 10451 10449 10448 10446 10444 10442 10440
10694 10695 10695 10695 10695 10694 10694 10695 10694 10692 10690 10690 10689 10689 10689 10688 10687 10685 10681 10679 10677 10676 10674 10671 10670 10667 10664 10662 10659 10655 10651 10649 10646 10642 10638 10633 10628 10625 10621 10616 10612 10609 10605 10600 10595 10590 10586 10581 10576 10571 10566 10559 10553 10547 10541 10536 10531 10525 10520 10514 10510 10505 10501 10498 10494 10490 10486 10482 10478 10474 10470 10467 10464 10461 10458 10455 10453 10450 10448 10446 10444 10442 10441 10439 10437
10684 10685 10685 10686 10686 10686 10686 10686 10684 10683 10682 10682 10682 10681 10681 10681 10681 10680 10676 10672 10670 10667 10664 10662 10660 10658 10656 10653 10650 10646 10643 10641 10638 10635 10630 10625 10619 10615 10612 10607 10603 10600 10597 10591 10586 10581 10576 10571 10566 10561 10556 10551 10546 10540 10534 10529 10524 10519 10513 10508 10504 10500 10496 10493 10489 10485 10482 10478 10474 10470 10466 10463 10460 10457 10454 10451 10449 10446 10444 10442 10441 10439 10437 10435 10434
10675 10676 10676 10677 10677 10677 10677 10677 10676 10675 10675 10675 10673 10672 10672 10673 10673 10672 10670 10667 10663 10660 10656 10652 10650 10648 10646 10644 10640 10637 10635 10633 10630 10626 10622 10616 10610 10605 10601 10597 10593 10590 10587 10583 10577 10572 10567 10561 10556 10551 10547 10542 10537 10533 10527 10522 10517 10511 10506 10502 10498 10494 10491 10488 10484 10481 10477 10473 10470 10466 10462 10459 10456 10453 10451 10448 10445 10443 10441 10439 10438 10436 10434 10433 10431
10668 10668 10668 10668 10669 10669 10668 10667 10667 10668 10668 10666 10665 10664 10664 10663 10663 10663 10661 10659 10657 10653 10649 10645 10642 10640 10638 10635 10631 10627 10625 10623 10620 10617 10613 10608 10602 10596 10590 10585 10582 10579 10576 10572 10567 10562 10557 10553 10548 10542 10537 10532 10528 10524 10520 10515 10510 10505 10500 10496 10492 10489 10486 10483 10480 10476 10473 10470 10466 10462 10459 10455 10452 10450 10448 10445 10442 10440 10438 10436 10435 10433 10432 10430 10429
10660 10661 10661 10661 10661 10661 10659 10659 10659 10659 10658 10656 10656 10656 10654 10653 10653 10652 10650 10649 10648 10645 10641 10637 10634 10632 10629 10625 10621 10618 10616 10613 10611 10608 10603 10599 10595 10590 10583 10578 10575 10571 10566 10561 10557 10552 10548 10543 10539 10534 10529 10524 10519 10516 10512 10507 10503 10499 10495 10491 10487 10484 10481 10479 10476 10473 10469 10466 10463 10459 10456 10452 10449 10446 10444 10442 10440 10437 10435 10433 10432 10431 10429 10428 10426
10653 10652 10652 10652 10653 10652 10651 10650 10650 10649 10648 10647 10647 10646 10644 10643 10643 10641 10639 10638 10637 10635 10632 10628 10626 10624 10621 10617 10613 10610 10607 10604 10602 10599 10594 10589 10585 10581 10576 10572 10568 10564 10559 10553 10548 10543 10539 10535 10530 10526 10521 10516 10512 10508 10504 10500 10496 10493 10490 10487 10483 10480 10477 10475 10472 10469 10466 10463 10460 10456 10453 10449 10446 10443 10441 10439 10437 10435 10433 10431 10429 10428 10426 10425 10424
10644 10643 10643 10643 10643 10643 10642 10641 10641 10640 10639 10637 10637 10636 10635 10633 10632 10630 10628 10627 10626 10624 10621 10620 10618 10615 10612 10608 10605 10601 10597 10594 10591 10589 10585 10580 10575 10571 10567 10564 10560 10556 10551 10546 10541 10536 10531 10527 10522 10518 10513 10509 10504 10500 10497 10493 10489 10486 10483 10481 10478 10476 10473 10470 10468 10465 10462 10459 10456 10453 10450 10446 10443 10440 10438 10436 10434 10432 10430 10428 10426 10425 10424 10422 10421
10635 10634 10634 10633 10633 10632 10632 10631 10631 10631 10629 10627 10627 10626 10624 10622 10621 10620 10618 10616 10614 10613 10612 10611 10609 10606 10603 10599 10595 10591 10586 10582 10580 10577 10574 10571 10566 10562 10558 10554 10551 10546 10541 10537 10533 10528 10523 10519 10515 10510 10506 10502 10498 10494 10490 10487 10483 10480 10477 10475 10472 10470 10468 10466 10463 10461 10459 10456 10453 10450 10447 10444 10440 10437 10434 10432 10431 10429 10427 10425 10424 10422 10421 10420 10419
10625 10625 10624 10623 10622 10622 10621 10621 10621 10622 10621 10618 10617 10616 10615 10613 10612 10611 10608 10605 10603 10602 10602 10602 10600 10597 10594 10591 10587 10581 10575 10571 10568 10566 10564 10561 10558 10553 10548 10544 10541 10537 10532 10528 10524 10519 10515 10511 10507 10503 10499 10495 10491 10487 10484 10481 10478 10475 10472 10470 10467 10465 10463 10461 10459 10457 10455 10452 10449 10446 10443 10441 10438 10434 10431 10429 10428 10426 10424 10422 10421 10419 10418 10417 10416
10616 10616 10615 10614 10612 10612 10611 10611 10611 10611 10610 10608 10607 10607 10606 10604 10602 10600 10598 10595 10593 10592 10591 10590 10589 10587 10585 10581 10578 10575 10570 10565 10560 10556 10553 10551 10549 10544 10539 10534 10531 10527 10523 10519 10516 10511 10507 10503 10499 10496 10492 10488 10484 10481 10477 10474 10472 10470 10468 10465 10462 10460 10458 10456 10455 10453 10450 10448 10445 10443 10440 10437 10435 10431 10428 10426 10424 10423 10421 10420 10418 10417 10415 10414 10414